Location: Bishausen
(51.6334°N, 9.9631°E)
Time: 09:28:54
(UTC+00:00)

Cosmos 1953 - Pass Details

Date: 23 May 2024
Orbit: 509 x 531 km, 82.5° (Epoch: 23 June)

Event Time Altitude Azimuth Distance (km) Brightness Sun altitude
Rises 00:58:42 0° 345° (NNW) 2,689 6.7 -14.4°
Reaches altitude 10° 01:00:54 10° 341° (NNW) 1,791 5.6 -14.2°
Maximum altitude 01:04:43 52° 265° (W) 666 2.5 -14.0°
Enters shadow 01:06:48 24° 198° (SSW) 1,123 3.3 -13.8°
